WESTFORD NEEDLES, 602

Orbit data source: Space-Track

WESTFORD NEEDLES, 602 is space debris in LEO originally from a launch on Thu, 09 May 1963 UTC launched from the Air Force Western Test Range (AFWTR). Debris objects in space refer to the collection of defunct objects orbiting the Earth. Examples of debris include non-operational satellites, rocket bodies, and fragments generated from explosions, collisions, or faulty payload assembly.

Loading next visibility...
Identifier
602, 1963-014E
Orbit
LEO
Country
Flag of USUS
Related business
Manufacturer
Unknown
Mission
Spacecraft
Bus & Motor
Unknown
Mass
~10 kg wet, ~10 kg dry
Launch date (UTC)
1963-05-09 (63 years ago)
Launch vehicle
Unknown
Launch site
Air Force Western Test Range (AFWTR)
Object type
Payload
Rocket body
Debris
Shape & HBR
Unknown
Radar Cross Section
Medium (>0.1 m² and <1 m²)

Expand to show TLE details & history
Last TLE update: 13 hours ago

TLE from 13 hours ago
0 WESTFORD NEEDLES
1   602U 63014E   26033.86565419 -.00000009  00000-0 -54514-2 0  9992
2   602  87.3549 202.3601 0020382 174.9162 185.1903  8.67238375986194
Epoch: 2026-02-02T20:46Z
TLE epoch observation values (Epoch: 2026-02-02T20:46:32.522Z)
Latitude
-0.00006°
Longitude
117.66978°
Altitude
3,651.498 km
Speed
6.298 km/s
True Right ascension
13h 29m 26s
True Declination
0° 00' 00"
Sunlit
Object was in daylight at epoch
Visualization orbit readout
Latitude
Unknown
Longitude
Unknown
Altitude
Unknown
Speed
Unknown
Apparent Right ascension
Unknown
Apparent Declination
Unknown
Sunlit
N/A
Visualization observer readout
Local Sidereal Time
11:39:44
Azimuth
Unknown
Elevation
Unknown
Doppler factor
Unknown
Orbital elements
Apogee altitude
3,647.205 km
Perigee altitude
3,606.42 km
Semi-major axis
10,004.949 km
Eccentricity
0.00204
Inclination
87.3549°
RAAN
202.3601°
Arg. of periapsis
174.9162°
True anomaly
185.16922°
Mean anomaly
185.1903°
Eccentric anomaly
185.17976°
Mean motion
2.16881 °/min
Orbital period
165.99 mins
BSTAR
-0.0054514

Documentation

Showing up to 5 results
|